STARLINK-11256 [DTC] (60904 NORAD) Tracking and Keplerian Element Data

This shows tracking and keplerian element data for the satellite.

Feedback or suggestion? Click here.




ElementValue
Catalog60904
NameSTARLINK-11256 [DTC]
Epoch Orbit795
Epoch Day286.84293905
Epoch Year2024
RAAN140.3186
Inclination53.1577
Eccentricity0.0001782
Argument of Perigee139.8326
Mean Anonmoly220.2827
Mean Motion15.76834702
Decay Rate0.00049481
L11 60904U 24154B 24286.84293905 .00049481 00000+0 30313-3 0 9995
L22 60904 53.1577 140.3186 0001782 139.8326 220.2827 15.76834702 7959



Live tracking and technical data element details for STARLINK-11256 [DTC] (NORAD 60904). STARLINK-11256 [DTC] can be tracked NOW for your location showing map with azimuth and elevation plus other details from your city location.







IsCatalogInMostPopularTable: catalog: 60904, numindb: 8
Update: records affected: 1



GetName: 60904 STARLINK-11256 [DTC]

Hit Count: updated at: Wed, 04 Dec 2024 17:46:15 GMT